| time (UTC) | temp C | wind direction | speed KPH | gust KPH | rain 1hr cm | rain 24hr cm | rain mn cm | humidity % | barometer mb |
| 20260903170040 | 31 | 157 | 12.9 | 19.3 | 0.00 | 0.00 | 0.00 | 64 | 988.8 |
| 20260903164531 | 30 | 191 | 9.7 | 16.1 | 0.00 | 0.00 | 0.00 | 64 | 989.0 |
| 20260903163036 | 30 | 178 | 11.3 | 16.1 | 0.00 | 0.00 | 0.00 | 64 | 989.1 |
| 20260903161525 | 30 | 213 | 9.7 | 16.1 | 0.00 | 0.00 | 0.00 | 65 | 988.9 |
| 20260903160023 | 30 | 223 | 12.9 | 27.4 | 0.00 | 0.00 | 0.00 | 65 | 988.6 |
| 20260903154520 | 30 | 218 | 14.5 | 25.7 | 0.00 | 0.00 | 0.00 | 66 | 988.3 |
| 20260903153017 | 30 | 220 | 16.1 | 29.0 | 0.00 | 0.00 | 0.00 | 67 | 988.1 |
| 20260903151608 | 29 | 242 | 24.1 | 30.6 | 0.00 | 0.00 | 0.00 | 67 | 988.1 |
| 20260903150101 | 28 | 204 | 17.7 | 25.7 | 0.00 | 0.00 | 0.00 | 67 | 988.1 |
| 20260903144538 | 28 | 227 | 25.7 | 35.4 | 0.00 | 0.00 | 0.00 | 66 | 988.0 |
| 20260903143038 | 28 | 221 | 17.7 | 27.4 | 0.00 | 0.00 | 0.00 | 63 | 988.0 |
| 20260903141533 | 27 | 223 | 19.3 | 27.4 | 0.00 | 0.00 | 0.00 | 61 | 988.0 |
| 20260903140029 | 27 | 247 | 16.1 | 25.7 | 0.00 | 0.00 | 0.00 | 59 | 988.1 |
| 20260903134528 | 27 | 219 | 14.5 | 25.7 | 0.00 | 0.00 | 0.00 | 57 | 988.1 |
| 20260903133026 | 27 | 232 | 19.3 | 29.0 | 0.00 | 0.00 | 0.00 | 56 | 988.2 |
| 20260903131523 | 27 | 227 | 17.7 | 27.4 | 0.00 | 0.00 | 0.00 | 53 | 988.2 |
| 20260903130024 | 26 | 205 | 14.5 | 24.1 | 0.00 | 0.00 | 0.00 | 52 | 988.1 |
| 20260903124512 | 26 | 229 | 17.7 | 25.7 | 0.00 | 0.00 | 0.00 | 51 | 988.0 |
| 20260903123008 | 26 | 233 | 16.1 | 27.4 | 0.00 | 0.00 | 0.00 | 51 | 987.8 |
| 20260903121511 | 26 | 230 | 17.7 | 27.4 | 0.00 | 0.00 | 0.00 | 50 | 987.7 |
| 20260903120007 | 26 | 224 | 17.7 | 22.5 | 0.00 | 0.00 | 0.00 | 50 | 987.7 |
| 20260903114506 | 26 | 218 | 16.1 | 20.9 | 0.00 | 0.00 | 0.00 | 49 | 987.6 |
| 20260903113004 | 26 | 221 | 14.5 | 25.7 | 0.00 | 0.00 | 0.00 | 48 | 987.6 |
| 20260903111503 | 26 | 221 | 12.9 | 17.7 | 0.00 | 0.00 | 0.00 | 48 | 987.6 |
| 20260903110003 | 26 | 196 | 12.9 | 19.3 | 0.00 | 0.00 | 0.00 | 48 | 987.8 |
| 20260903104548 | 26 | 211 | 11.3 | 16.1 | 0.00 | 0.00 | 0.00 | 49 | 987.6 |
| 20260903103043 | 26 | 210 | 11.3 | 19.3 | 0.00 | 0.00 | 0.00 | 49 | 987.5 |
| 20260903101540 | 26 | 215 | 12.9 | 25.7 | 0.00 | 0.00 | 0.00 | 50 | 987.4 |
| 20260903100029 | 26 | 226 | 14.5 | 25.7 | 0.00 | 0.00 | 0.00 | 51 | 987.4 |
| 20260903094505 | 26 | 222 | 16.1 | 25.7 | 0.00 | 0.00 | 0.00 | 53 | 987.4 |
| 20260903093003 | 26 | 218 | 16.1 | 25.7 | 0.00 | 0.00 | 0.00 | 54 | 987.4 |
| 20260903091605 | 26 | 226 | 17.7 | 29.0 | 0.00 | 0.00 | 0.00 | 55 | 987.4 |
| 20260903090041 | 26 | 234 | 14.5 | 27.4 | 0.00 | 0.00 | 0.00 | 55 | 987.6 |
| 20260903084541 | 26 | 226 | 14.5 | 22.5 | 0.00 | 0.00 | 0.00 | 56 | 987.7 |
| 20260903083025 | 26 | 221 | 12.9 | 24.1 | 0.00 | 0.00 | 0.00 | 57 | 987.7 |
| 20260903081521 | 26 | 231 | 12.9 | 19.3 | 0.00 | 0.00 | 0.00 | 59 | 987.7 |
| 20260903080010 | 26 | 217 | 11.3 | 16.1 | 0.00 | 0.00 | 0.00 | 59 | 987.8 |
| 20260903074502 | 26 | 221 | 11.3 | 16.1 | 0.00 | 0.00 | 0.00 | 59 | 987.7 |
| 20260903073050 | 26 | 208 | 11.3 | 17.7 | 0.00 | 0.00 | 0.00 | 60 | 987.7 |
| 20260903071545 | 26 | 198 | 11.3 | 16.1 | 0.00 | 0.00 | 0.00 | 61 | 987.7 |
| 20260903070032 | 26 | 208 | 9.7 | 14.5 | 0.00 | 0.00 | 0.00 | 61 | 987.9 |
| 20260903064531 | 26 | 208 | 11.3 | 16.1 | 0.00 | 0.00 | 0.00 | 62 | 988.0 |
| 20260903063031 | 26 | 202 | 9.7 | 16.1 | 0.00 | 0.00 | 0.00 | 64 | 988.2 |
| 20260903061531 | 26 | 178 | 8.0 | 14.5 | 0.00 | 0.00 | 0.00 | 65 | 988.3 |
| 20260903060029 | 26 | 188 | 11.3 | 16.1 | 0.00 | 0.00 | 0.00 | 66 | 988.3 |
| 20260903054529 | 26 | 176 | 12.9 | 17.7 | 0.00 | 0.00 | 0.00 | 67 | 988.3 |
| 20260903053030 | 26 | 186 | 12.9 | 24.1 | 0.00 | 0.00 | 0.00 | 67 | 988.3 |
| 20260903051527 | 27 | 178 | 12.9 | 19.3 | 0.00 | 0.00 | 0.00 | 68 | 988.3 |
| 20260903050020 | 27 | 183 | 9.7 | 16.1 | 0.00 | 0.00 | 0.00 | 68 | 988.2 |
| 20260903044517 | 27 | 188 | 9.7 | 17.7 | 0.00 | 0.00 | 0.00 | 68 | 988.1 |
| 20260903043056 | 27 | 178 | 14.5 | 17.7 | 0.00 | 0.00 | 0.00 | 68 | 988.1 |
| 20260903041609 | 27 | 159 | 8.0 | 14.5 | 0.00 | 0.00 | 0.00 | 68 | 988.2 |
| 20260903040113 | 27 | 162 | 8.0 | 17.7 | 0.00 | 0.00 | 0.00 | 68 | 988.2 |
| 20260903034557 | 28 | 138 | 12.9 | 20.9 | 0.00 | 0.00 | 0.00 | 68 | 988.3 |
| 20260903033054 | 28 | 121 | 9.7 | 20.9 | 0.00 | 0.00 | 0.00 | 67 | 988.3 |
| 20260903031553 | 28 | 125 | 6.4 | 14.5 | 0.00 | 0.00 | 0.00 | 67 | 988.0 |
| 20260903030052 | 28 | 101 | 6.4 | 19.3 | 0.00 | 0.00 | 0.00 | 67 | 987.6 |
| 20260903024552 | 28 | 109 | 6.4 | 17.7 | 0.00 | 0.00 | 0.00 | 66 | 987.4 |
| 20260903023035 | 30 | 108 | 12.9 | 20.9 | 0.00 | 0.00 | 0.00 | 64 | 987.1 |
| 20260903021534 | 31 | 101 | 12.9 | 19.3 | 0.00 | 0.00 | 0.00 | 57 | 986.8 |
| 20260903020023 | 31 | 125 | 1.6 | 11.3 | 0.00 | 0.00 | 0.00 | 51 | 986.6 |
| 20260903014522 | 32 | 136 | 4.8 | 12.9 | 0.00 | 0.00 | 0.00 | 48 | 986.3 |
| 20260903013021 | 33 | 163 | 4.8 | 11.3 | 0.00 | 0.00 | 0.00 | 48 | 986.1 |
| 20260903011521 | 33 | 170 | 1.6 | 8.0 | 0.00 | 0.00 | 0.00 | 46 | 985.9 |
| 20260903010019 | 34 | 196 | 8.0 | 12.9 | 0.00 | 0.00 | 0.00 | 46 | 985.9 |
| 20260903004519 | 34 | 71 | 0.0 | 6.4 | 0.00 | 0.00 | 0.00 | 44 | 985.8 |
| 20260903003019 | 35 | 71 | 1.6 | 6.4 | 0.00 | 0.00 | 0.00 | 43 | 985.8 |
| 20260903001518 | 35 | 80 | 6.4 | 11.3 | 0.00 | 0.00 | 0.00 | 42 | 985.6 |
| 20260902234602 | 35 | 111 | 0.0 | 6.4 | 0.00 | 0.00 | 0.00 | 42 | 985.6 |
| 20260902233042 | 35 | 112 | 0.0 | 6.4 | 0.00 | 0.00 | 0.00 | 42 | 985.7 |
| 20260902231542 | 35 | 117 | 3.2 | 11.3 | 0.00 | 0.00 | 0.00 | 43 | 985.7 |
| 20260902230023 | 35 | 113 | 0.0 | 4.8 | 0.00 | 0.00 | 0.00 | 43 | 985.6 |
| 20260902224522 | 35 | 101 | 4.8 | 11.3 | 0.00 | 0.00 | 0.00 | 43 | 985.6 |
| 20260902223010 | 35 | 278 | 0.0 | 8.0 | 0.00 | 0.00 | 0.00 | 42 | 985.8 |
| 20260902221509 | 35 | 290 | 1.6 | 14.5 | 0.00 | 0.00 | 0.00 | 43 | 985.8 |
| 20260902220008 | 35 | 206 | 6.4 | 11.3 | 0.00 | 0.00 | 0.00 | 41 | 985.8 |
| 20260902214508 | 36 | 227 | 9.7 | 14.5 | 0.00 | 0.00 | 0.00 | 41 | 985.9 |
| 20260902213006 | 36 | 185 | 4.8 | 11.3 | 0.00 | 0.00 | 0.00 | 40 | 985.9 |
| 20260902211510 | 36 | 213 | 8.0 | 9.7 | 0.00 | 0.00 | 0.00 | 40 | 985.9 |
| 20260902210003 | 36 | 229 | 6.4 | 16.1 | 0.00 | 0.00 | 0.00 | 40 | 986.1 |
| 20260902204503 | 36 | 225 | 9.7 | 14.5 | 0.00 | 0.00 | 0.00 | 40 | 986.3 |
| 20260902203043 | 35 | 184 | 6.4 | 12.9 | 0.00 | 0.00 | 0.00 | 40 | 986.5 |
| 20260902201542 | 35 | 167 | 6.4 | 12.9 | 0.00 | 0.00 | 0.00 | 41 | 986.6 |
| 20260902200030 | 35 | 133 | 3.2 | 8.0 | 0.00 | 0.00 | 0.00 | 42 | 986.9 |
| 20260902194529 | 35 | 47 | 9.7 | 17.7 | 0.00 | 0.00 | 0.00 | 42 | 987.1 |
| 20260902193025 | 36 | 76 | 1.6 | 6.4 | 0.00 | 0.00 | 0.00 | 41 | 987.3 |
| 20260902191522 | 36 | 165 | 3.2 | 19.3 | 0.00 | 0.00 | 0.00 | 40 | 987.6 |
| 20260902190031 | 36 | 248 | 4.8 | 11.3 | 0.00 | 0.00 | 0.00 | 41 | 987.8 |
| 20260902184517 | 36 | 33 | 0.0 | 4.8 | 0.00 | 0.00 | 0.00 | 42 | 988.1 |
| 20260902183015 | 36 | 320 | 1.6 | 12.9 | 0.00 | 0.00 | 0.00 | 41 | 988.3 |
| 20260902181512 | 36 | 256 | 4.8 | 14.5 | 0.00 | 0.00 | 0.00 | 42 | 988.5 |
| 20260902180052 | 35 | 228 | 3.2 | 11.3 | 0.00 | 0.00 | 0.00 | 44 | 988.9 |
| 20260902174549 | 35 | 33 | 1.6 | 8.0 | 0.00 | 0.00 | 0.00 | 44 | 989.2 |
| 20260902173037 | 35 | 245 | 6.4 | 14.5 | 0.00 | 0.00 | 0.00 | 44 | 989.4 |
| 20260902171533 | 35 | 294 | 1.6 | 12.9 | 0.00 | 0.00 | 0.00 | 44 | 989.7 |